Track NAVSTAR 34 (USA 94) now! NAVSTAR 34 (USA 94) is classified as:
1 22779U 93054A 26012.27836401 .00000086 00000-0 00000-0 0 9994 2 22779 53.3400 223.4323 0050551 251.4800 270.3491 1.89129867233071